Home > Weather > Khanty-Mansiysk > Past weeks

Flag for Russia Past Weather in Khanty-Mansiysk, Russia — Yesterday and Last 2 Weeks

Now
82 °F

Passing clouds.


Feels Like: 80 °F
Forecast: 64 / 81 °F
Wind: 6 mph from West

Location: Hanty-Mansijsk

Current Time: May 24, 2016 at 4:55:42 PM

Latest Report: May 24, 2016 at 4:30 PM


Visibility: N/A

Pressure: 30.07 "Hg

Humidity: 20%

Dew Point: 37 °F

Location of Khanty-MansiyskLocation

Past Weather in Khanty-Mansiysk — Graph

°F

Khanty-Mansiysk Temperature Yesterday

Maximum temperature yesterday: 84 °F (at 12:30 PM)
Minimum temperature yesterday: 57 °F (at 4:00 AM)
Average temperature yesterday: 73 °F

High & Low Weather Summary for the Past Weeks

 TemperatureHumidityPressure
High84 °F (May 22, 2:30 PM)93% (May 11, 6:30 AM)30.33 "Hg (May 11, 6:30 AM)
Low28 °F (May 14, 5:30 AM)13% (May 18, 12:00 PM)29.30 "Hg (May 13, 8:30 AM)
Average54 °F48%30.02 "Hg
* Reported May 9 3:00 PM — May 24 3:30 PM, Khanty-Mansiysk, Weather by CustomWeather, © 2016

Note: Actual official high and low records may vary slightly from our data, if they occured in-between our weather recording intervals... More about our weather records

Advertising

Khanty-Mansiysk Weather History for the Previous 24 Hours

Scroll right to see more
 ConditionsComfort  
Time TempWeatherWind HumidityBarometerVisibility
3:30 PM
Tue, May 24
84 °FPassing clouds.8 mph16%30.09 "HgN/A
3:00 PM84 °FPassing clouds.8 mph18%30.09 "HgN/A
2:30 PM84 °FScattered clouds.8 mph18%30.12 "HgN/A
2:00 PM82 °FScattered clouds.8 mph17%30.12 "HgN/A
1:30 PM82 °FPassing clouds.10 mph19%30.12 "HgN/A
1:00 PM82 °FPassing clouds.10 mph19%30.15 "HgN/A
12:30 PM84 °FPassing clouds.6 mph19%30.15 "HgN/A
12:00 PM82 °FPassing clouds.8 mph20%30.15 "HgN/A
11:30 AM82 °FSunny.8 mph21%30.15 "Hg10 mi
11:00 AM81 °FSunny.6 mph26%30.18 "Hg10 mi
10:30 AM81 °FPassing clouds.6 mph26%30.18 "HgN/A
10:00 AM79 °FSunny.6 mph26%30.18 "Hg10 mi
9:30 AM77 °FSunny.6 mph28%30.18 "Hg10 mi
9:00 AM75 °FSunny.6 mph34%30.18 "Hg10 mi
8:30 AM73 °FSunny.6 mph38%30.21 "Hg10 mi
8:00 AM70 °FPassing clouds.3 mph53%30.21 "HgN/A
7:30 AM70 °FSunny.1 mph53%30.18 "Hg10 mi
7:00 AM68 °FSunny.1 mph56%30.21 "Hg10 mi
6:30 AM66 °FSunny.No wind60%30.21 "Hg10 mi
6:00 AM64 °FSunny.No wind68%30.21 "Hg10 mi
5:30 AM63 °FSunny.No wind73%30.21 "Hg10 mi
5:00 AM61 °FClear.No wind72%30.21 "Hg6 mi
4:30 AM61 °FClear.1 mph72%30.21 "Hg6 mi
4:00 AM59 °FClear.3 mph72%30.21 "Hg6 mi
3:30 AM57 °FClear.1 mph72%30.18 "Hg6 mi
3:00 AM57 °FClear.1 mph72%30.18 "Hg6 mi
2:30 AM59 °FClear.No wind72%30.18 "Hg6 mi
2:00 AM59 °FClear.No wind72%30.18 "Hg6 mi
1:30 AM61 °FClear.No wind63%30.18 "Hg10 mi
1:00 AM61 °FClear.No wind63%30.18 "Hg6 mi
12:30 AM61 °FClear.1 mph63%30.18 "Hg10 mi
12:00 AM63 °FClear.No wind52%30.18 "Hg6 mi
11:30 PM
Mon, May 23
64 °FClear.No wind49%30.18 "Hg10 mi
11:00 PM64 °FClear.No wind52%30.18 "Hg10 mi
10:30 PM66 °FClear.1 mph52%30.18 "Hg10 mi
10:00 PM66 °FClear.No wind56%30.18 "Hg10 mi
9:30 PM68 °FClear.No wind56%30.18 "Hg10 mi
9:00 PM72 °FSunny.1 mph50%30.18 "Hg10 mi
8:30 PM73 °FSunny.1 mph36%30.18 "Hg10 mi
8:00 PM75 °FSunny.3 mph44%30.18 "Hg10 mi
7:30 PM77 °FPassing clouds.6 mph34%30.18 "HgN/A
7:00 PM79 °FPassing clouds.6 mph28%30.18 "HgN/A
6:30 PM81 °FPassing clouds.6 mph23%30.18 "HgN/A
6:00 PM81 °FPassing clouds.6 mph18%30.18 "HgN/A
5:30 PM81 °FPassing clouds.3 mph20%30.18 "HgN/A
5:00 PM82 °FPassing clouds.6 mph16%30.18 "HgN/A
4:30 PM82 °FPassing clouds.3 mph16%30.18 "HgN/A
4:00 PM84 °FPassing clouds.3 mph15%30.18 "HgN/A
Weather by CustomWeather, © 2016

See weather overviewHow to use our weather pages